Location: Meanaryar
(48.4161°N, 4.7315°W)
Time: 01:45:19
(UTC+00:00)

BREEZE-M DEB (TANK) - Pass Details

Date: 18 September 2020
Orbit: 290 x 20473 km, 49.2° (Epoch: 29 October)

Event Time Altitude Azimuth Distance (km) Brightness Sun altitude
Rises 20:03:37 0° 283° (WNW) 2,372 7.7 -16.8°
Reaches altitude 10° 20:06:09 10° 257° (WSW) 1,180 5.3 -17.2°
Maximum altitude 20:07:36 16° 212° (SSW) 876 4.0 -17.4°
Enters shadow 20:07:43 16° 208° (SSW) 880 3.9 -17.5°
